FENGYUN 1C DEB, 31830

Orbit data source: Space-Track

FENGYUN 1C DEB, 31830 is space debris in SSO originally from a launch on Mon, 10 May 1999 UTC launched from the Taiyaun Space Center, China (TSC). Fengyun 1C debris stems from the Chinese weather satellite Fengyun-1C, which was intentionally destroyed by a Chinese anti-satellite missile in 2007. This event dramatically increased the amount of space debris, with thousands of trackable fragments posing hazards to satellites and human spaceflight. The Fengyun 1C debris cloud has become a focal point in discussions about space sustainability and the need for international regulations to prevent the creation of new debris.

Loading next visibility...
Identifier
31830, 1999-025CHU
Orbit
SSO
Country
Flag of CNCN / PRC
Related business
Manufacturer
Unknown
Mission
Spacecraft
Bus & Motor
Unknown
Mass
Unknown
Launch date (UTC)
1999-05-10 (27 years ago)
Launch vehicle
Unknown
Launch site
Taiyaun Space Center, China (TSC)
Object type
Payload
Rocket body
Debris
Shape & HBR
Unknown shape, 0.1 m
Radar Cross Section
Medium (>0.1 m² and <1 m²)

Expand to show TLE details & history
Last TLE update: 22 hours ago

TLE from 22 hours ago
0 FENGYUN 1C DEB
1 31830U 99025CHU 26236.22710221  .00000824  00000-0  68186-3 0  9992
2 31830  99.1681 340.7446 0182078 354.0275  35.6149 13.84424682962604
Epoch: 2026-08-24T05:27Z
TLE epoch observation values (Epoch: 2026-08-24T05:27:01.630Z)
Latitude
30.49777°
Longitude
-78.94977°
Altitude
844.394 km
Speed
7.488 km/s
True Right ascension
22h 21m 16s
True Declination
30° 20' 58"
Sunlit
Object was in full shadow at epoch
Visualization orbit readout
Latitude
Unknown
Longitude
Unknown
Altitude
Unknown
Speed
Unknown
Apparent Right ascension
Unknown
Apparent Declination
Unknown
Sunlit
N/A
Visualization observer readout
Local Sidereal Time
18:21:29
Azimuth
Unknown
Elevation
Unknown
Doppler factor
Unknown
Orbital elements
Apogee altitude
1,078.809 km
Perigee altitude
812.115 km
Semi-major axis
7,323.599 km
Eccentricity
0.01821
Inclination
99.1681°
RAAN
340.7446°
Arg. of periapsis
354.0275°
True anomaly
36.85271°
Mean anomaly
35.6149°
Eccentric anomaly
36.2315°
Mean motion
3.46303 °/min
Orbital period
103.96 mins
BSTAR
0.00068186
Loading maneuver chart data...
Computing Atmospheric mass density...

Documentation

Showing up to 5 results
|